Simultaneous Nadir Overpasses (SNOs) Predictions

Prediction of SNOs between GOES-16 and METOP-B Satellite Orbit:

Table of predicted SNOs for the next 14.0 days since TLE Epoch: 9/28/2024
Index Date Time (GOES-16) GOES-16 Lat,Lon METOP-B Lat,Lon Distance(km) Time Diff (sec)
1 09/29/2024 14:18:56 -0.06, -75.22 -0.17, -74.84 43.51 80
2 10/01/2024 02:35:13 0.06, -75.22 -0.89, -79.44 481.25 80
3 10/02/2024 02:17:13 0.06, -75.23 0.26, -74.45 89.18 80
4 10/03/2024 14:36:01 -0.06, -75.26 0.79, -79.01 427.00 80
5 10/04/2024 14:12:39 -0.06, -75.28 -0.31, -74.01 143.70 80
6 10/06/2024 02:31:38 0.06, -75.28 -0.67, -78.62 380.08 80
7 10/07/2024 02:13:36 0.06, -75.30 0.44, -73.62 190.81 80
8 10/08/2024 14:32:24 -0.06, -75.34 0.58, -78.19 324.71 80
9 10/09/2024 14:09:03 -0.05, -75.35 -0.53, -73.19 246.28 80
10 10/11/2024 02:28:00 0.05, -75.36 -0.48, -77.79 276.96 80
